User: anonymous   Login
Location: Unspecified
(0.0000°N, 0.0000°E)
Time: 14:52:05
(UTC+00:00)
Language:

Max Valier Satellite - Orbit

View from above orbital plane
View from above orbital plane
View from above satellite
View from above satellite

Ground track
Ground track

The orbit data is extracted from the following two-line orbital elements,

1 42778U 17036P   18203.50088478  .00000870  00000-0  41868-4 0  9995
2 42778  97.4010 262.6242 0011193 311.2667  48.7604 15.21381028 59875
Epoch (UTC): 22 July 2018 12:01:16
Eccentricity: 0.0011193
inclination: 97.4010°
perigee height: 494 km
apogee height: 509 km
right ascension of ascending node: 262.6242°
argument of perigee: 311.2667°
revolutions per day: 15.21381028
mean anomaly at epoch: 48.7604°
orbit number at epoch: 5987

The dashed part of the orbit path shows where the satellite is in the earth's shadow,  

DLR